Reflectivity
-20 -20 -20 -20 -20 -20 -20 -20 -20 -20 -20 -20 -20 -20 -20 -20 -20 -20 -20 -20 -20 -20 4 30 40 37 34 32 29 33 31 30
-20 -20 -20 -20 -20 -20 -20 -20 -20 -20 -20 -20 -20 -20 -20 -20 -20 -20 -20 -20 -20 -20 -20 6 26 27 16 49 32 21 32 30
-20 -20 -20 -20 -20 -20 -20 -20 -20 -20 -20 -20 -20 -20 -20 -20 -20 -20 -20 -20 -20 -20 -20 -20 1 26 43 34 29 29 25 30
-20 -20 -20 -20 -20 -20 -20 -20 -20 -20 -20 -20 -20 -20 -20 -20 -20 -20 -20 -20 -20 -20 -20 -20 -20 -11 37 33 38 29 33 32
-20 -20 -20 -20 -20 -20 -20 -20 -20 -20 -20 -20 -20 -20 -20 -20 -20 -20 -20 -20 -20 -20 -20 -20 -20 -20 3 33 36 33 33 29
-20 -20 -20 -20 -20 -20 -20 -20 -20 -20 -20 -20 -20 -20 -20 -20 -20 -20 -20 -20 -20 -20 -20 -20 -20 -20 -20 24 15 35 37 29
-20 -20 -20 -20 -20 -20 -20 -20 -20 -20 -20 -20 -20 -20 -20 -20 -20 -20 -20 -20 -20 -20 -20 -20 -16 -6 -15 -4 23 23 24 30
-20 -20 -20 -20 -20 -20 -20 -20 -20 -20 -20 -20 -20 -19 -20 -20 -20 -20 -20 -20 -20 -20 -20 -20 -20 -20 -20 -20 -20 21 26 25
-20 -20 -20 -20 -20 -20 -20 -20 -15 -20 -20 -20 -20 -20 -16 7 5 3 -20 -20 -18 11 -9 -19 -20 -20 -20 -20 -20 -20 -19 -13
-20 -20 -20 -20 -18 -20 -1 1 -14 -19 2 0 -2 9 9 8 5 6 6 9 9 22 14 9 9 -2 -19 -20 -20 -20 -17 -17
-20 -20 -20 -20 -20 -20 -20 -19 -5 2 1 -14 1 3 10 8 8 9 16 21 16 11 12 10 2 12 12 8 2 -17 -20 -20
-20 -20 -20 -20 -20 -20 -4 10 -11 -20 -15 -20 -9 -5 11 13 14 20 20 22 23 21 21 20 18 13 15 12 2 -15 -13 -2
-20 -20 -20 -20 -20 2 8 10 -20 -20 -16 -17 2 12 28 11 17 19 17 23 21 19 19 16 14 10 13 11 12 10 3 14
-20 -20 -20 -20 -20 -8 4 13 -19 -20 -0 15 16 18 17 15 16 16 15 19 25 20 15 9 -1 -12 -18 -5 10 15 10 -17
-20 -20 -20 -20 -20 -6 3 -11 -20 -20 1 15 19 18 18 19 15 15 14 -4 -14 -11 4 2 11 8 -10 5 16 17 8 10
-20 -20 -20 -17 12 -0 3 -20 -19 -10 2 9 17 20 20 19 19 14 -15 -13 -12 -18 -12 -8 -5 6 12 12 24 27 21 17
-20 -20 -20 -20 -20 -19 -20 -20 -20 -16 -20 -1 -20 -5 -1 12 5 4 8 -11 -20 -20 -8 11 19 28 23 24 24 16 16 24
-20 -20 -20 -20 -20 -20 -20 -20 -20 -19 -20 -20 -20 -20 -20 -20 -20 -20 -20 -20 -20 -20 -19 3 10 19 37 34 12 -13 -20 1
-20 -20 -14 -20 -20 -20 -20 -20 -20 -20 -20 -20 -20 -20 -20 -20 -20 -20 -20 -20 -20 -19 -18 -19 -13 -4 10 22 25 24 9 -0
Wind_Speed
12 13 13 12 12 13 13 12 13 14 10 10 6 4 5 6 4 5 8 6 7 6 3 7 5 14 10 9 11 10 9 11
10 11 12 14 14 15 15 15 15 12 10 12 8 7 9 4 7 7 6 6 6 6 5 6 9 15 14 9 11 11 9 7
12 13 13 13 14 14 14 14 14 12 9 8 6 10 7 9 7 7 8 7 6 6 6 5 8 11 18 13 10 10 9 8
12 13 12 11 13 14 14 15 14 13 14 9 8 9 7 7 8 9 8 10 11 7 7 8 7 4 11 16 15 11 10 9
10 12 12 11 11 10 12 13 14 13 14 12 13 11 13 9 10 10 10 11 10 9 8 10 9 6 7 13 19 15 9 12
10 11 12 11 12 12 14 15 13 13 12 11 11 12 10 10 10 13 12 11 10 11 9 7 9 8 8 10 18 14 14 15
9 9 11 11 12 15 14 14 15 17 16 17 17 17 16 14 13 11 9 8 8 9 11 10 10 8 7 5 8 14 20 19
9 11 14 15 16 16 15 16 17 17 18 17 17 17 16 16 14 11 13 9 8 10 10 9 8 10 9 8 8 9 11 9
8 11 14 15 17 16 16 17 17 17 16 16 14 15 10 11 12 11 9 10 10 13 12 13 13 11 11 10 9 10 11 8
9 13 13 14 14 15 15 15 16 15 16 14 15 14 14 12 14 11 9 11 9 11 12 13 13 13 12 9 8 10 9 8
7 10 11 11 11 12 13 15 15 15 16 15 14 15 14 13 11 12 12 11 11 11 10 16 13 11 11 10 10 10 11 9
5 6 8 9 10 12 12 12 14 16 16 16 16 16 15 13 12 12 12 12 13 13 13 13 7 5 8 9 9 11 11 10
5 6 7 9 10 10 12 13 15 15 15 15 16 16 12 14 13 14 14 13 13 14 14 14 14 11 9 8 7 7 7 7
5 6 8 9 10 10 12 13 15 15 15 14 16 17 15 15 16 15 16 16 16 17 17 18 17 15 13 11 10 10 11 10
4 6 8 9 9 10 12 13 13 14 14 14 16 17 16 15 16 17 16 17 17 18 19 18 19 19 17 15 14 13 12 13
6 7 7 8 10 11 11 12 13 13 13 14 15 14 15 16 15 17 17 18 18 18 20 22 21 19 18 18 16 15 15 16
5 7 8 10 11 10 11 12 12 12 13 14 15 16 16 16 17 18 18 19 20 22 23 22 23 17 33 32 22 17 18 18
5 5 7 8 8 10 11 11 10 12 13 13 14 14 15 16 15 17 19 20 19 21 22 21 23 22 31 30 28 18 19 20
5 4 5 6 6 8 8 10 11 12 14 14 14 14 14 14 16 17 16 16 18 18 19 21 20 21 32 29 26 18 18 20
Wind_Direction
31 24 16 13 10 6 1 359 354 345 338 338 324 311 349 320 334 325 322 313 342 325 338 331 304 263 242 235 223 217 216 208
25 18 10 7 9 3 357 351 352 349 351 348 340 327 324 319 319 302 297 336 328 347 323 327 324 249 239 230 232 221 219 207
14 11 7 6 356 354 351 349 347 346 344 336 317 314 313 311 305 333 339 321 322 318 299 281 278 304 230 235 247 227 233 197
7 8 3 355 353 348 344 342 342 341 340 330 323 310 306 319 323 318 315 312 305 291 290 288 284 306 260 220 250 245 232 220
3 358 354 350 346 339 337 333 339 336 337 330 324 314 311 311 304 304 301 295 292 292 287 285 281 268 253 245 225 253 250 260
356 353 346 343 345 346 346 343 343 334 331 322 317 309 300 302 297 300 300 293 284 281 275 270 278 274 262 272 221 227 258 247
350 344 343 343 351 352 346 346 340 343 337 332 325 318 310 305 303 297 293 293 291 278 277 269 263 272 279 253 242 234 242 246
343 350 356 354 353 352 343 350 345 343 339 334 329 321 310 301 299 297 297 294 288 287 278 271 270 269 277 281 272 260 253 241
350 359 357 354 352 348 340 347 340 339 334 330 326 322 315 305 300 290 279 280 279 279 276 271 266 261 263 259 257 249 250 240
1 3 357 351 345 343 336 342 338 337 332 333 330 327 325 316 311 312 310 307 293 277 270 273 269 260 253 261 273 272 274 258
360 2 349 342 340 339 342 345 338 340 342 343 336 331 339 333 335 339 334 324 328 318 299 302 244 246 251 249 261 259 261 263
347 341 339 335 337 347 344 341 344 351 350 345 344 340 351 350 355 353 351 356 357 354 352 350 2 284 260 246 245 261 256 255
353 346 335 340 345 343 351 350 353 355 347 352 350 347 1 1 7 3 5 13 14 13 14 17 18 10 357 333 278 267 265 267
358 347 351 341 347 348 358 357 357 351 350 354 358 356 358 12 12 14 16 15 23 25 26 28 23 14 13 8 18 50 56 48
7 359 350 342 348 355 1 2 1 354 357 359 2 358 4 7 15 17 16 24 25 29 33 32 32 25 21 23 25 43 47 53
24 5 351 352 358 2 4 6 3 358 3 7 3 359 8 15 17 21 22 24 27 26 33 34 32 30 29 26 27 38 46 48
40 18 10 9 1 3 5 9 3 3 12 13 6 8 10 17 18 20 23 23 25 27 29 30 32 27 30 34 35 35 44 44
65 31 21 4 2 2 8 8 2 16 21 16 15 12 14 17 16 22 26 25 24 29 29 29 33 29 27 30 34 37 42 42
85 43 17 352 1 8 10 19 21 26 26 20 17 15 18 17 21 24 23 24 29 29 27 29 34 32 30 29 33 34 37 39